This demonstration page uses our WeatherBlox Daily Observations layout. Learn more.

Left ArrowRight Arrow

40.92501, -98.34201

Hourly Observations for August 31, 2020

Temp ( °F °C ) Dew Point ( °F °C ) Humidity (%) Winds ( mph kmh ) Pressure ( in mb ) Visibility ( mi km ) Precip ( " mm )
12:53 am 00:53 Clear 70 21.1 64 17.8 82 82 Calm 29.66 1005 10 16 0.00 0.00
1:38 am 01:38 Cloudy 70 21.1 63 17.2 79 79 N 30 48 29.72 1007 9 14 0.00 0.00
1:53 am 01:53 Cloudy 65 18.3 58 14.4 78 78 N 22 35 29.76 1008 10 16 0.00 0.00
2:31 am 02:31 Cloudy 64 17.8 57 13.9 78 78 N 18 30 29.76 1008 10 16 0.00 0.00
2:53 am 02:53 Cloudy 65 18.3 56 13.3 73 73 N 22 35 29.78 1009 10 16 0.00 0.00
3:53 am 03:53 Cloudy 65 18.3 54 12.2 68 68 NNW 15 24 29.82 1010 10 16 0.00 0.00
4:53 am 04:53 Cloudy 63 17.2 49 9.4 60 60 N 22 35 29.84 1011 10 16 0.00 0.00
5:53 am 05:53 Cloudy 62 16.7 45 7.2 54 54 N 17 28 29.86 1011 10 16 0.00 0.00
6:53 am 06:53 Cloudy 61 16.1 45 7.2 56 56 N 12 19 29.87 1011 10 16 0.00 0.00
7:53 am 07:53 Sunny 60 15.6 43 6.1 53 53 N 13 20 29.88 1012 10 16 0.00 0.00
8:53 am 08:53 Sunny 61 16.1 44 6.7 54 54 N 18 30 29.89 1012 10 16 0.00 0.00
9:53 am 09:53 Sunny 63 17.2 44 6.7 50 50 N 17 28 29.90 1013 10 16 0.00 0.00
10:53 am 10:53 Sunny 67 19.4 44 6.7 44 44 N 15 24 29.91 1013 10 16 0.00 0.00
11:53 am 11:53 Sunny 70 21.1 42 5.6 37 37 NNE 15 24 29.92 1013 10 16 0.00 0.00
12:53 pm 12:53 Sunny 72 22.2 43 6.1 35 35 NE 13 20 29.92 1013 10 16 0.00 0.00
1:53 pm 13:53 Sunny 74 23.3 41 5 31 31 NE 13 20 29.91 1013 10 16 0.00 0.00
2:53 pm 14:53 Sunny 75 23.9 42 5.6 31 31 ENE 14 22 29.91 1013 10 16 0.00 0.00
3:53 pm 15:53 Sunny 75 23.9 41 5 29 29 NE 13 20 29.90 1012 10 16 0.00 0.00
4:53 pm 16:53 Sunny 76 24.4 42 5.6 30 30 ENE 7 11 29.88 1012 10 16 0.00 0.00
5:53 pm 17:53 Sunny 74 23.3 43 6.1 33 33 ESE 13 20 29.88 1012 10 16 0.00 0.00
6:53 pm 18:53 Sunny 72 22.2 44 6.7 37 37 E 8 13 29.87 1012 10 16 0.00 0.00
7:53 pm 19:53 Sunny 68 20 45 7.2 44 44 E 6 9 29.87 1012 10 16 0.00 0.00
8:53 pm 20:53 Clear 61 16.1 49 9.4 65 65 ENE 3 6 29.88 1012 9 14 0.00 0.00
9:53 pm 21:53 Clear 58 14.4 48 8.9 70 70 NNE 6 9 29.92 1013 10 16 0.00 0.00
10:53 pm 22:53 Clear 58 14.4 48 8.9 70 70 Calm 29.95 1014 10 16 0.00 0.00
11:53 pm 23:53 Clear 58 14.4 48 8.9 70 70 Calm 29.95 1014 10 16 0.00 0.00

Powered by AerisWeather